EW5004 Weather Reports


Display with metric or nautical units.
time (UTC)temp
F
wind
direction
speed
MPH
gust
MPH
rain 1hr
in
rain 24hr
in
rain mn
in
humidity
%
barometer
mb
20260509213039 67 315 5.0 13.0 0.00 0.00 0.00 55 1002.1
20260509211533 68 261 8.0 16.0 0.00 0.00 0.00 54 1002.2
20260509210038 69 248 7.0 15.0 0.00 0.00 0.00 53 1002.3
20260509204528 68 258 8.0 17.0 0.00 0.00 0.00 54 1002.4
20260509203018 68 244 7.0 17.0 0.00 0.00 0.00 54 1002.7
20260509201515 67 278 7.0 20.0 0.00 0.00 0.00 55 1002.9
20260509200010 67 267 7.0 17.0 0.00 0.00 0.00 55 1003.4
20260509194505 68 310 7.0 18.0 0.00 0.00 0.00 55 1003.4
20260509193001 68 258 5.0 14.0 0.00 0.00 0.00 55 1003.7
20260509191558 68 252 8.0 14.0 0.00 0.00 0.00 55 1003.8
20260509190053 68 282 7.0 13.0 0.00 0.00 0.00 55 1003.9
20260509184558 67 298 7.0 16.0 0.00 0.00 0.00 53 1004.0
20260509183044 67 279 5.0 14.0 0.00 0.00 0.00 55 1004.1
20260509181546 67 244 7.0 12.0 0.00 0.00 0.00 55 1004.3
20260509180035 66 240 7.0 14.0 0.00 0.00 0.00 54 1004.5
20260509174535 66 260 5.0 10.0 0.00 0.00 0.00 54 1004.6
20260509173028 66 274 4.0 11.0 0.00 0.00 0.00 52 1004.9
20260509171527 63 322 0.0 7.0 0.00 0.00 0.00 42 1004.7
20260509170018 64 147 2.0 15.0 0.00 0.00 0.00 42 1005.0
20260509164513 64 301 4.0 9.0 0.00 0.00 0.00 45 1005.3
20260509163008 62 300 5.0 10.0 0.00 0.00 0.00 39 1005.5
20260509161504 62 316 3.0 8.0 0.00 0.00 0.00 28 1005.8
20260509160101 60 264 5.0 9.0 0.00 0.00 0.00 26 1005.8
20260509154556 60 296 5.0 12.0 0.00 0.00 0.00 18 1006.0
20260509153053 59 227 6.0 11.0 0.00 0.00 0.00 9 1006.1
20260509151555 58 275 5.0 10.0 0.00 0.00 0.00 6 1006.1
20260509150044 57 248 4.0 12.0 0.00 0.00 0.00 1 1006.2
20260509144550 57 276 5.0 9.0 0.00 0.00 0.00 100 1006.2
20260509143034 56 265 4.0 10.0 0.00 0.00 0.00 100 1006.1
20260509141532 55 259 3.0 7.0 0.00 0.00 0.00 100 1006.1
20260509140026 55 287 2.0 10.0 0.00 0.00 0.00 100 1006.1
20260509134538 55 290 3.0 9.0 0.00 0.00 0.00 100 1006.2
20260509133020 54 278 2.0 4.0 0.00 0.00 0.00 100 1006.2
20260509131514 53 283 2.0 7.0 0.00 0.00 0.00 100 1006.3
20260509130007 53 266 4.0 9.0 0.00 0.00 0.00 100 1006.4
20260509124505 53 275 3.0 7.0 0.00 0.00 0.00 100 1006.4
20260509123131 52 269 3.0 8.0 0.00 0.00 0.00 100 1006.6
20260509121611 52 260 4.0 9.0 0.00 0.00 0.00 100 1006.8
20260509120054 51 240 3.0 6.0 0.00 0.00 0.00 100 1007.0
20260509114545 51 245 4.0 8.0 0.00 0.00 0.00 100 1006.8
20260509113041 51 244 3.0 10.0 0.00 0.00 0.00 100 1006.8
20260509111551 51 236 2.0 7.0 0.00 0.00 0.00 100 1006.8
20260509110034 51 240 3.0 6.0 0.00 0.00 0.00 100 1006.8
20260509104539 51 251 2.0 7.0 0.00 0.00 0.00 100 1006.8
20260509103023 51 232 3.0 6.0 0.00 0.00 0.00 100 1006.8
20260509101524 51 242 2.0 7.0 0.00 0.00 0.00 100 1006.8
20260509100014 51 236 3.0 6.0 0.00 0.00 0.00 100 1006.8
20260509094520 51 249 3.0 7.0 0.00 0.00 0.00 100 1006.9
20260509093005 51 249 3.0 8.0 0.00 0.00 0.00 100 1007.0
20260509091501 50 263 1.0 4.0 0.00 0.00 0.00 100 1007.0
20260509084553 51 263 3.0 6.0 0.00 0.00 0.00 100 1007.3
20260509083048 51 274 2.0 6.0 0.00 0.00 0.00 100 1007.2
20260509081546 51 228 1.0 6.0 0.00 0.00 0.00 100 1007.3
20260509080039 51 264 3.0 6.0 0.00 0.00 0.00 100 1007.3
20260509074544 51 265 2.0 7.0 0.00 0.00 0.00 100 1007.3
20260509073030 51 270 2.0 5.0 0.00 0.00 0.00 100 1007.4
20260509071527 51 277 2.0 5.0 0.00 0.00 0.00 100 1007.5
20260509070022 51 244 2.0 6.0 0.00 0.00 0.00 100 1007.5
20260509064517 51 265 2.0 6.0 0.00 0.00 0.00 100 1007.6
20260509063022 51 267 3.0 5.0 0.00 0.00 0.00 100 1007.8
20260509061510 51 271 2.0 5.0 0.00 0.00 0.00 100 1007.9
20260509060005 50 251 2.0 6.0 0.00 0.00 0.00 100 1008.0
20260509054604 50 243 2.0 6.0 0.00 0.00 0.00 100 1008.2
20260509053105 50 231 1.0 5.0 0.00 0.00 0.00 100 1008.4
20260509051553 50 247 3.0 6.0 0.00 0.00 0.00 100 1008.6
20260509050048 50 242 3.0 7.0 0.00 0.00 0.00 100 1008.8
20260509044542 50 245 2.0 7.0 0.00 0.00 0.00 100 1008.9
20260509043039 50 236 4.0 7.0 0.00 0.00 0.00 100 1008.9
20260509041605 50 244 1.0 6.0 0.00 0.00 0.00 100 1009.2
20260509040032 50 275 3.0 6.0 0.00 0.00 0.00 100 1009.3
20260509034524 50 245 3.0 5.0 0.00 0.00 0.00 100 1009.4
20260509033020 50 236 3.0 6.0 0.00 0.00 0.00 100 1009.6
20260509031516 50 221 5.0 9.0 0.00 0.00 0.00 100 1009.7
20260509030012 51 222 2.0 5.0 0.00 0.00 0.00 100 1009.8
20260509024508 51 258 2.0 5.0 0.00 0.00 0.00 100 1009.9
20260509023004 51 269 2.0 6.0 0.00 0.00 0.00 100 1010.0
20260509021559 52 265 3.0 8.0 0.00 0.00 0.00 2 1010.0
20260509020059 52 292 2.0 8.0 0.00 0.00 0.00 14 1009.9
20260509014550 53 255 2.0 5.0 0.00 0.00 0.00 24 1009.9
20260509013051 52 210 1.0 4.0 0.00 0.00 0.00 31 1009.9
20260509011542 52 200 0.0 2.0 0.00 0.00 0.00 33 1009.6
20260509010040 52 207 0.0 2.0 0.00 0.00 0.00 31 1009.4
20260509004534 53 209 0.0 2.0 0.00 0.00 0.00 39 1009.3
20260509003028 53 240 0.0 2.0 0.00 0.00 0.00 39 1009.3
20260509001524 54 256 1.0 2.0 0.00 0.00 0.00 45 1009.3
20260509000019 54 263 0.0 2.0 0.00 0.00 0.00 47 1009.3
20260508234514 54 305 0.0 2.0 0.00 0.00 0.00 55 1009.3
20260508233010 55 306 0.0 2.0 0.00 0.00 0.00 56 1009.4
20260508231506 55 307 1.0 3.0 0.00 0.00 0.00 56 1009.5
20260508230001 55 340 1.0 3.0 0.00 0.00 0.00 56 1009.4
20260508224557 55 5 2.0 4.0 0.00 0.00 0.00 57 1009.6
20260508223053 55 14 1.0 5.0 0.00 0.00 0.00 57 1009.6
20260508221548 55 349 2.0 4.0 0.00 0.00 0.00 57 1009.6
20260508220045 55 18 3.0 8.0 0.00 0.00 0.00 57 1009.6
20260508214540 55 34 1.0 5.0 0.00 0.00 0.00 57 1009.6